Palma de Mallorca, Spain

6:07 PM CEST on July 24, 2017 (GMT +0200)
Palma De Mallorca

Weather History for LEPA - August, 2013

Change the Weather History Date:

Thursday, August 22, 2013

  Actual Average Record
Temperature  
Mean Temperature 75 °F -  
Max Temperature 87 °F 81 °F 100 °F (2011)
Min Temperature 63 °F 62 °F 55 °F (2014)
Cooling Degree Days 10    
Growing Degree Days 25 (Base 50)    
Moisture  
Dew Point 63 °F    
Average Humidity 64    
Maximum Humidity 88    
Minimum Humidity 37    
Precipitation  
Precipitation 0.00 in 0.05 in - ()
Sea Level Pressure  
Sea Level Pressure 30.01 in    
Wind  
Wind Speed 3 mph ()    
Max Wind Speed 14 mph    
Max Gust Speed -    
Visibility 7.3 miles    
Events      
Averages and records for this station are not official NWS values.
T = Trace of Precipitation, MM = Missing Value Source: Averaged Metar Reports

Daily Weather History Graph

Daily Weather History Graph

Search for Another Location

Airport or City:

Trip Planner

Search our weather history database for the weather conditions in past years. The results will help you decide how hot, cold, wet, or windy it might be!

Date:

Astronomy

Aug. 22, 2013 Rise Set
Actual Time 7:08 AM CEST 8:35 PM CEST
Civil Twilight 6:39 AM CEST 9:03 PM CEST
Nautical Twilight 6:05 AM CEST 9:37 PM CEST
Astronomical Twilight 5:29 AM CEST 10:12 PM CEST
Moon 9:10 PM CEST (8/22) 8:38 AM CEST (8/22)
Length of Visible Light 14h 23m
Length of Day
13h 27m
Full, 98% of the Moon is Illuminated
Aug 22
Full
Aug 28
Last Quarter
Sep 5
New
Sep 12
First Quarter
Sep 19
Full

Hourly Weather History & Observations

Time (CEST) Temp. Heat Index Dew Point Humidity Pressure Visibility Wind Dir Wind Speed Gust Speed Precip Events Conditions
12:00 AM 71.6 °F - 62.6 °F 73% 30.06 in - Calm Calm - N/A   Clear
12:30 AM 71.6 °F - 62.6 °F 73% 30.06 in - Variable 2.3 mph - N/A   Clear
1:00 AM 69.8 °F - 62.6 °F 78% 30.06 in - ENE 2.3 mph - N/A   Clear
1:30 AM 71.6 °F - 62.6 °F 73% 30.06 in - NE 1.2 mph - N/A   Clear
2:00 AM 69 °F - 62 °F 71% 30.07 in 12 mi Calm Calm - -   Scattered Clouds
2:00 AM 69.8 °F - 62.6 °F 78% 30.06 in - Calm Calm - N/A   Clear
2:30 AM 68.0 °F - 60.8 °F 78% 30.06 in - NNE 1.2 mph - N/A   Clear
3:00 AM 68.0 °F - 60.8 °F 78% 30.04 in - Calm Calm - N/A   Clear
3:30 AM 68.0 °F - 60.8 °F 78% 30.04 in - East 1.2 mph - N/A   Clear
4:00 AM 68.0 °F - 60.8 °F 78% 30.04 in - Calm Calm - N/A   Clear
4:30 AM 66.2 °F - 60.8 °F 83% 30.04 in - Calm Calm - N/A   Clear
5:00 AM 66.2 °F - 60.8 °F 83% 30.04 in - ENE 1.2 mph - N/A   Clear
5:30 AM 64.4 °F - 59.0 °F 83% 30.01 in - Variable 1.2 mph - N/A   Clear
6:00 AM 64.4 °F - 59.0 °F 83% 30.01 in - North 3.5 mph - N/A   Clear
6:30 AM 64.4 °F - 60.8 °F 88% 30.01 in - Calm Calm - N/A   Clear
7:00 AM 62.6 °F - 59.0 °F 88% 30.01 in - Calm Calm - N/A   Clear
7:30 AM 64.4 °F - 59.0 °F 83% 30.01 in - Calm Calm - N/A   Clear
8:00 AM 66 °F - 60 °F 77% 30.03 in 16 mi NE 1.2 mph - -  
8:00 AM 66.2 °F - 60.8 °F 83% 30.01 in - Variable 1.2 mph - N/A   Clear
8:30 AM 69.8 °F - 62.6 °F 78% 30.01 in - Calm Calm - N/A   Clear
9:00 AM 73.4 °F - 64.4 °F 73% 30.01 in - Variable 1.2 mph - N/A   Clear
9:30 AM 77.0 °F - 64.4 °F 65% 30.04 in - Calm Calm - N/A   Clear
10:00 AM 80.6 °F 81.5 °F 60.8 °F 51% 30.01 in - Calm Calm - N/A   Clear
10:30 AM 84.2 °F 83.5 °F 57.2 °F 40% 30.04 in 6.2 mi Variable 2.3 mph - N/A   Partly Cloudy
11:00 AM 84.2 °F 83.5 °F 57.2 °F 40% 30.04 in - West 1.2 mph - N/A   Clear
11:30 AM 86.0 °F 84.9 °F 57.2 °F 37% 30.01 in - SSW 1.2 mph - N/A   Clear
12:00 PM 84.2 °F 83.8 °F 59.0 °F 42% 30.01 in 6.2 mi SW 10.4 mph - N/A   Partly Cloudy
12:30 PM 84.2 °F 84.4 °F 60.8 °F 45% 30.01 in 6.2 mi SW 11.5 mph - N/A   Partly Cloudy
1:00 PM 84.2 °F 85.6 °F 64.4 °F 51% 30.01 in 6.2 mi SW 12.7 mph - N/A   Partly Cloudy
1:30 PM 84.2 °F 85.6 °F 64.4 °F 51% 30.01 in 6.2 mi SW 11.5 mph - N/A   Partly Cloudy
2:00 PM 86.0 °F 86.6 °F 62.6 °F 45% 30.01 in 6.2 mi SW 12.7 mph - N/A   Partly Cloudy
2:30 PM 86.0 °F 87.3 °F 64.4 °F 48% 30.01 in 6.2 mi SW 12.7 mph - N/A   Partly Cloudy
3:00 PM 84.2 °F 85.6 °F 64.4 °F 51% 30.01 in - SW 13.8 mph - N/A   Clear
3:30 PM 84.2 °F 85.6 °F 64.4 °F 51% 30.01 in - SW 13.8 mph - N/A   Clear
4:00 PM 84.2 °F 85.0 °F 62.6 °F 48% 29.98 in 6.2 mi SW 12.7 mph - N/A   Partly Cloudy
4:30 PM 84.2 °F 85.6 °F 64.4 °F 51% 29.98 in 6.2 mi SW 12.7 mph - N/A   Partly Cloudy
5:00 PM 84.2 °F 85.6 °F 64.4 °F 51% 29.98 in 6.2 mi SW 12.7 mph - N/A   Partly Cloudy
5:30 PM 84.2 °F 85.6 °F 64.4 °F 51% 29.98 in 6.2 mi WSW 12.7 mph - N/A   Partly Cloudy
6:00 PM 82.4 °F 83.9 °F 64.4 °F 54% 29.98 in 6.2 mi SW 11.5 mph - N/A   Partly Cloudy
6:30 PM 82.4 °F 83.9 °F 64.4 °F 54% 29.98 in 6.2 mi SW 11.5 mph - N/A   Partly Cloudy
7:00 PM 82.4 °F 83.9 °F 64.4 °F 54% 29.98 in 6.2 mi SW 10.4 mph - N/A   Partly Cloudy
7:30 PM 80.6 °F 82.7 °F 66.2 °F 61% 29.95 in 6.2 mi SW 8.1 mph - N/A   Partly Cloudy
8:00 PM 81 °F - 65 °F 48% 29.97 in 19 mi SW 9.2 mph - -   Scattered Clouds
8:00 PM 80.6 °F 82.3 °F 64.4 °F 58% 29.95 in 6.2 mi SW 6.9 mph - N/A   Partly Cloudy
8:30 PM 78.8 °F - 64.4 °F 61% 29.98 in 6.2 mi WSW 6.9 mph - N/A   Partly Cloudy
9:00 PM 78.8 °F - 64.4 °F 61% 29.98 in 6.2 mi WSW 4.6 mph - N/A   Partly Cloudy
9:30 PM 78.8 °F - 66.2 °F 65% 29.98 in 6.2 mi SSW 2.3 mph - N/A   Partly Cloudy
10:00 PM 78.8 °F - 66.2 °F 65% 29.98 in 6.2 mi SSW 2.3 mph - N/A   Partly Cloudy
10:30 PM 78.8 °F - 66.2 °F 65% 30.01 in 6.2 mi South 2.3 mph - N/A   Partly Cloudy
11:00 PM 78.8 °F - 66.2 °F 65% 30.01 in 6.2 mi SSE 2.3 mph - N/A   Partly Cloudy
11:30 PM 77.0 °F - 64.4 °F 65% 29.98 in 6.2 mi SE 4.6 mph - N/A   Partly Cloudy